Regional Weather Roundup
Issued by NWS

Home | Current Version | Previous Version | Text Only | Print | Product List | Glossary Off
Versions: 1 2 3 4 5 6 7 8 9 10 11 12 13 14 15 16 17 18 19 20 21 22 23 24 25 26 27 28 29 30 31 32 33 34 35 36 37 38 39 40 41 42 43 44 45 46 47

000
ASUS45 KSLC 012010
RWRUT

UTAH REGIONAL WEATHER ROUNDUP
NATIONAL WEATHER SERVICE SALT LAKE CITY UT
200 PM MDT WED APR 01 2015

UTZ001>011-023>025-012100-

NORTHERN UTAH

CITY           SKY/WX    TMP DP  RH WIND       PRES   REMARKS
BRIGHAM CITY     N/A     48  14  25 SE3       30.08F
HILL AFB       MOSUNNY   46  17  31 W12       30.08F
LOGAN          MOSUNNY   48  13  24 W10G24    30.06F
OGDEN            N/A     50  15  24 N9        30.08F
PROVO AIRPORT  SUNNY     50  19  29 NW14      30.07F
SALT LAKE CITY   N/A     48  20  32 NW9G18    30.10F
VERNAL         MOSUNNY   58   0   9 SW18G24   29.90F
WENDOVER         N/A     50  12  22 E8        30.10F
HEBER CITY       N/A     50  12  22 SW5       30.01F
WEST JORDAN    SUNNY     46  21  36 N13G18    30.09F

$$

UTZ012>022-026-027-012100-

SOUTHERN/CENTRAL UTAH

CITY           SKY/WX    TMP DP  RH WIND       PRES   REMARKS
BLANDING         N/A     66  23  19 W17G25    29.98S
BRYCE CANYON     N/A     53  17  24 W13       30.04F
CEDAR CITY       N/A     54  21  27 NW5       30.01F
DELTA            N/A     52   1  12 N13G18    30.07F
HANKSVILLE       N/A     64  19  17 NW12G18   29.93F
MILFORD          N/A     55  18  23 N16G24    30.04F
MOAB/CYNLANDS  SUNNY     65  15  14 W22G28    29.89F
PRICE            N/A     56   9  15 W15G21    29.97F
ST GEORGE        N/A     72  25  17 W9        29.93F
KANAB            N/A     70  14  11 W12       29.97F

$$

REGIONAL REPORTS     COLORADO/ARIZONA

CITY           SKY/WX    TMP DP  RH WIND       PRES   REMARKS
CRAIG, CO      CLOUDY    55  25  31 NW15      29.91F
GRAND JUNCTION PTSUNNY   67  16  14 MISG      29.85S
RIFLE          CLOUDY    62  27  26 N8G30     29.85R
MONTROSE       PTSUNNY   63  23  21 SW25G45   29.87S HAZE
CORTEZ         MOSUNNY   69  17  13 SW16G25   29.93F
PAGE, AZ         N/A     75   6   7 NW13      29.87F
GRAND CANYON     N/A     64  14  14 W13G22    30.02F
KINGMAN          N/A     74  13   9 CALM      29.95F
FLAGSTAFF        N/A     63  24  22 SW16G29   30.05F

$$

REGIONAL REPORTS    NEVADA/IDAHO/WYOMING

CITY           SKY/WX    TMP DP  RH WIND       PRES   REMARKS
LAS VEGAS, NV    N/A     77   7   7 CALM      29.89F
ELY              N/A     49  -2  12 VRB5      30.04F
ELKO             N/A     47  10  22 NW5       30.09F
POCATELLO, ID  MOSUNNY   48  19  31 W28G33    30.07F
BURLEY         LGT RAIN  47  18  31 W17G28    30.09F
EVANSTON, WY   SUNNY     42   8  24 W15G25    30.03S
ROCK SPRINGS   SUNNY     45   3  17 W31G38    29.96F
KEMMERER       MOSUNNY   39   5  24 W17G28    30.01F WCI  30

$$


USA.gov is the U.S. government's official web portal to all federal, state and local government web resources and services.